Location: Cheyres
(46.8153°N, 6.7877°E)
Time: 14:08:43
(UTC+00:00)

Cosmos 2341 Rocket - Pass Details

Date: 11 May 2021
Orbit: 968 x 1004 km, 82.9° (Epoch: 19 June)

Event Time Altitude Azimuth Distance (km) Brightness Sun altitude
Rises 21:52:55 0° 352° (N) 3,743 8.4 -21.5°
Reaches altitude 10° 21:55:28 10° 354° (N) 2,790 7.4 -21.7°
Maximum altitude 22:01:54 77° 80° (E) 1,035 4.0 -22.1°
Enters shadow 22:04:07 43° 157° (SSE) 1,368 4.3 -22.3°
